Central Point, OR

5:02 AM PST on February 14, 2016 (GMT -0800)
Rogue Valley International-Medford

Weather History for KMFR - May, 2013

Change the Weather History Date:

Tuesday, May 28, 2013

  Actual Average Record
Temperature  
Mean Temperature 63 °F 62 °F  
Max Temperature 74 °F 77 °F 99 °F (1983)
Min Temperature 52 °F 49 °F 34 °F (1929)
Degree Days  
Heating Degree Days 2 4  
Month to date heating degree days 120 185  
Since 1 July heating degree days 3991 4184  
Cooling Degree Days 0 2  
Month to date cooling degree days 33 32  
Year to date cooling degree days 35 35  
Growing Degree Days 12 (Base 50)    
Moisture  
Dew Point 47 °F    
Average Humidity 63    
Maximum Humidity 96    
Minimum Humidity 29    
Precipitation  
Precipitation T in 0.04 in 0.45 in (2008)
Month to date precipitation 0.68 1.19  
Year to date precipitation 3.73 8.72  
Snow  
Snow 0.00 in 0.00 in - ()
Month to date snowfall 0.0 0.0  
Since 1 July snowfall 1.7 4.1  
Snow Depth 0.00 in    
Sea Level Pressure  
Sea Level Pressure 29.90 in    
Wind  
Wind Speed 5 mph (NW)    
Max Wind Speed 17 mph    
Max Gust Speed 23 mph    
Visibility 10 miles    
Events Rain    
T = Trace of Precipitation, MM = Missing Value Source: NWS Daily Summary

Daily Weather History Graph

Daily Weather History Graph

Search for Another Location

Airport or City:

Trip Planner

Search our weather history database for the weather conditions in past years. The results will help you decide how hot, cold, wet, or windy it might be!

Date:

Astronomy

May. 28, 2013 Rise Set
Actual Time 5:39 AM PDT 8:38 PM PDT
Civil Twilight 5:05 AM PDT 9:12 PM PDT
Nautical Twilight 4:22 AM PDT 9:55 PM PDT
Astronomical Twilight 3:32 AM PDT 10:46 PM PDT
Moon No Moon Rise 9:36 AM PDT (5/28)
Length of Visible Light 16h 06m
Length of Day
14h 59m
Waning Gibbous, 82% of the Moon is Illuminated
May 28
Waning Gibbous
May 31
Last Quarter
Jun 8
New
Jun 16
First Quarter
Jun 23
Full

Hourly Weather History & Observations

Time (PDT) Temp. Dew Point Humidity Pressure Visibility Wind Dir Wind Speed Gust Speed Precip Events Conditions
12:53 AM 55.0 °F 51.1 °F 86% 29.89 in 10.0 mi Calm Calm - N/A   Overcast
1:53 AM 54.0 °F 51.1 °F 90% 29.90 in 10.0 mi Calm Calm - N/A   Overcast
2:53 AM 54.0 °F 51.1 °F 90% 29.91 in 10.0 mi Calm Calm - N/A   Overcast
3:53 AM 53.1 °F 51.1 °F 93% 29.91 in 10.0 mi West 3.5 mph - N/A   Overcast
4:53 AM 52.0 °F 50.0 °F 93% 29.92 in 10.0 mi Calm Calm - N/A   Overcast
5:53 AM 53.1 °F 51.1 °F 93% 29.92 in 10.0 mi Calm Calm - N/A   Overcast
6:53 AM 54.0 °F 51.1 °F 90% 29.94 in 10.0 mi Calm Calm - N/A   Overcast
7:53 AM 54.0 °F 51.1 °F 90% 29.96 in 10.0 mi Calm Calm - N/A   Mostly Cloudy
8:53 AM 57.9 °F 48.9 °F 72% 29.96 in 10.0 mi Calm Calm - N/A   Mostly Cloudy
9:14 AM 57.2 °F 50.0 °F 77% 29.96 in 10.0 mi NNE 3.5 mph - N/A   Overcast
9:26 AM 57.2 °F 48.2 °F 72% 29.97 in 10.0 mi NE 3.5 mph - N/A   Overcast
9:53 AM 59.0 °F 48.0 °F 67% 29.96 in 10.0 mi Calm Calm - N/A   Overcast
10:20 AM 60.8 °F 48.2 °F 63% 29.97 in 10.0 mi North 4.6 mph - N/A   Mostly Cloudy
10:53 AM 62.1 °F 45.0 °F 53% 29.96 in 10.0 mi North 4.6 mph - 0.01 in   Mostly Cloudy
11:53 AM 64.0 °F 45.0 °F 50% 29.95 in 10.0 mi NNW 6.9 mph - N/A   Mostly Cloudy
12:53 PM 66.0 °F 44.1 °F 45% 29.94 in 10.0 mi West 5.8 mph - N/A   Scattered Clouds
1:53 PM 69.1 °F 45.0 °F 42% 29.92 in 10.0 mi Variable 4.6 mph - N/A   Scattered Clouds
2:53 PM 71.1 °F 44.1 °F 38% 29.89 in 10.0 mi Variable 4.6 mph - N/A   Clear
3:53 PM 73.9 °F 42.1 °F 32% 29.87 in 10.0 mi WNW 8.1 mph - N/A   Scattered Clouds
4:53 PM 73.0 °F 41.0 °F 31% 29.86 in 10.0 mi WNW 11.5 mph - N/A   Scattered Clouds
5:53 PM 72.0 °F 37.9 °F 29% 29.85 in 10.0 mi WNW 12.7 mph - N/A   Scattered Clouds
6:53 PM 69.1 °F 39.9 °F 35% 29.83 in 10.0 mi NW 15.0 mph - N/A   Scattered Clouds
7:53 PM 66.9 °F 39.9 °F 37% 29.82 in 10.0 mi NW 9.2 mph - N/A   Overcast
8:53 PM 63.0 °F 43.0 °F 48% 29.81 in 10.0 mi NW 9.2 mph - 0.00 in Rain Light Rain
9:53 PM 61.0 °F 46.9 °F 60% 29.81 in 10.0 mi NNW 5.8 mph - 0.00 in Rain Light Rain
10:53 PM 59.0 °F 48.0 °F 67% 29.79 in 10.0 mi NW 6.9 mph - 0.00 in Rain Light Rain
11:53 PM 57.0 °F 48.9 °F 74% 29.79 in 10.0 mi NNW 5.8 mph - 0.00 in Rain Light Rain